Regional Weather Roundup
Issued by NWS

Home | Current Version | Previous Version | Text Only | Print | Product List | Glossary On
Versions: 1 2 3 4 5 6 7 8 9 10 11 12 13 14 15 16 17 18 19 20 21 22 23 24 25 26 27 28 29 30 31 32 33 34 35 36 37 38 39 40 41 42 43 44 45 46 47 48 49 50
000
ASUS43 KMKX 271221
RWRWI

WISCONSIN REGIONAL WEATHER ROUNDUP
NATIONAL WEATHER SERVICE MILWAUKEE/SULLIVAN WI
700 AM CDT TUE SEP 27 2016

NOTE: "FAIR" INDICATES FEW OR NO CLOUDS BELOW 12,000 FEET WITH NO
SIGNIFICANT WEATHER AND/OR OBSTRUCTIONS TO VISIBILITY.

WIZ001-002-006>008-014>016-023>028-271300-
NORTHWEST WISCONSIN

CITY           SKY/WX    TMP DP  RH WIND       PRES   REMARKS
SUPERIOR ARPT  CLOUDY    51  45  78 NW17G24   29.69F
6HR MIN TEMP:  51; 6HR MAX TEMP:  54;

ASHLAND        CLOUDY    49  45  86 W13G21    29.65R
6HR MIN TEMP:  49; 6HR MAX TEMP:  51; 6HR PCP:  0.08;

HAYWARD        CLOUDY    49  45  86 W6        29.70S
6HR MIN TEMP:  49; 6HR MAX TEMP:  53; 6HR PCP:  0.02;

SIREN          CLOUDY    50  42  74 W9        29.76R
6HR MIN TEMP:  50; 6HR MAX TEMP:  53;

CUMBERLAND     CLOUDY    46  41  81 W18       29.74S
RICE LAKE      CLOUDY    50  42  73 W12G17    29.75S
6HR MIN TEMP:  50; 6HR MAX TEMP:  53;

CHETEK         NOT AVBL
LADYSMITH      RAIN      50  45  82 W15       29.72S
6HR MIN TEMP:  50; 6HR MAX TEMP:  55;

EAU CLAIRE     CLOUDY    51  42  71 W13       29.75S
6HR MIN TEMP:  51; 6HR MAX TEMP:  54;

MENOMONIE      CLOUDY    51  41  69 W14       29.78S
6HR MIN TEMP:  50; 6HR MAX TEMP:  54;

NEW RICHMOND   PTCLDY    47  40  74 W13       29.80R
6HR MIN TEMP:  46; 6HR MAX TEMP:  49;

OSCEOLA        PTCLDY    48  41  76 W13       29.82S
6HR MIN TEMP:  48; 6HR MAX TEMP:  52;

$$

WIZ003>005-009-010-017-018-271300-
NORTH CENTRAL WISCONSIN

CITY           SKY/WX    TMP DP  RH WIND       PRES   REMARKS
MANITOWISH WTR NOT AVBL
ARBOR VITAE    DRIZZLE   49  47  93 W9G18     29.62S
6HR MIN TEMP:  49; 6HR MAX TEMP:  52;

WOODRUFF       DRIZZLE   49  47  93 W9G18     29.62S
6HR MIN TEMP:  49; 6HR MAX TEMP:  52;

RHINELANDER    LGT RAIN  48  47  96 W14G25    29.63S
6HR MIN TEMP:  48; 6HR MAX TEMP:  51; 6HR PCP: TRACE;

EAGLE RIVER    RAIN      47  47  99 W12G18    29.59F
6HR MIN TEMP:  47; 6HR MAX TEMP:  48;

LAND O LAKES   LGT RAIN  47  46  96 W10G20    29.60R
6HR MIN TEMP:  47; 6HR MAX TEMP:  48;

PHILLIPS       RAIN      46  46  98 W6        29.66S
6HR MIN TEMP:  46; 6HR MAX TEMP:  51; 6HR PCP:  0.05;

TOMAHAWK       RAIN      47  43  88 W9G16     29.66S
6HR MIN TEMP:  47; 6HR MAX TEMP:  51;

MEDFORD        CLOUDY    49  43  81 W10G17    29.69R
6HR MIN TEMP:  48; 6HR MAX TEMP:  50;

MERRILL        DRIZZLE   48  45  88 W10G16    29.68R
6HR MIN TEMP:  48; 6HR MAX TEMP:  53;

$$

WIZ029-030-035-036-043>047-271300-
CENTRAL WISCONSIN

CITY           SKY/WX    TMP DP  RH WIND       PRES   REMARKS
WAUSAU         LGT RAIN  50  43  77 W13G23    29.67R
6HR MIN TEMP:  50; 6HR MAX TEMP:  53; 6HR PCP: TRACE;

MOSINEE        CLOUDY    50  45  81 W12       29.69F
MARSHFIELD     CLOUDY    51  41  68 W14G20    29.70S
6HR MIN TEMP:  50; 6HR MAX TEMP:  51;

STEVENS POINT  CLOUDY    49  41  73 W8G17     29.70S
6HR MIN TEMP:  48; 6HR MAX TEMP:  51;

WAUPACA        CLOUDY    54  43  66 W10       29.70F
6HR MIN TEMP:  54; 6HR MAX TEMP:  55;

WAUTOMA        CLOUDY    50  41  71 W9        29.73F
6HR MIN TEMP:  48; 6HR MAX TEMP:  50;

WISC RAPIDS    CLOUDY    50  43  77 W9        29.73S
6HR MIN TEMP:  50; 6HR MAX TEMP:  52;

CAMP DOUGLAS   PTCLDY    48  39  71 W9        29.76R
$$

WIZ011>013-019>022-031-037>040-048>050-271300-
NORTHEAST WISCONSIN

CITY           SKY/WX    TMP DP  RH WIND       PRES   REMARKS
ANTIGO         CLOUDY    47  44  89 W12       29.64F
6HR MIN TEMP:  47; 6HR MAX TEMP:  51;

SHAWANO        CLOUDY    54  43  67 W8        29.66S
6HR MIN TEMP:  54; 6HR MAX TEMP:  56;

OCONTO         NOT AVBL
STURGEON BAY   LGT RAIN  53  45  74 W13G23    29.63S
6HR MIN TEMP:  52; 6HR MAX TEMP:  56;

GREEN BAY      CLOUDY    53  44  71 W10G20    29.66S
6HR MIN TEMP:  53; 6HR MAX TEMP:  54;

MANITOWOC      CLOUDY    54  42  64 MISG      29.68S
6HR MIN TEMP:  53; 6HR MAX TEMP:  55;

APPLETON       MOCLDY    52  39  62 W13       29.67F
CLINTONVILLE   NOT AVBL
OSHKOSH        CLOUDY    50  40  68 W10G17    29.69F
6HR MIN TEMP:  50; 6HR MAX TEMP:  55;

$$

WIZ032>034-041-042-053>061-271300-
SOUTHWEST WISCONSIN

CITY           SKY/WX    TMP DP  RH WIND       PRES   REMARKS
LA CROSSE      CLEAR     53  39  59 W13       29.80S
6HR MIN TEMP:  52; 6HR MAX TEMP:  58;

SPARTA         CLEAR     47  40  75 W5        29.78S
6HR MIN TEMP:  47; 6HR MAX TEMP:  50;

VIROQUA        CLEAR     47  37  68 W9        29.80S
6HR MIN TEMP:  46; 6HR MAX TEMP:  52;

BOSCOBEL       CLEAR     49  39  68 SW8       29.83F
6HR MIN TEMP:  49; 6HR MAX TEMP:  55;

PRAIRIE DU CHI CLEAR     49  36  59 W8        29.86R
6HR MIN TEMP:  49; 6HR MAX TEMP:  56;

PLATTEVILLE    CLEAR     43  40  89 SW7       29.85S
6HR MIN TEMP:  43; 6HR MAX TEMP:  51;

$$

WIZ056-057-062-063-064-067-068-271300-
SOUTH CENTRAL WISCONSIN

CITY           SKY/WX    TMP DP  RH WIND       PRES   REMARKS
REEDSBURG      NOT AVBL
BARABOO/DELLS  CLEAR     49  36  62 W8        29.77R
6HR MIN TEMP:  49; 6HR MAX TEMP:  51;

LONE ROCK      CLEAR     47  39  74 W6        29.80F
6HR MIN TEMP:  47; 6HR MAX TEMP:  52;

MINERAL POINT  CLEAR     46  37  71 W9        29.82F
MADISON        PTCLDY    51  37  58 VRB7      29.77F
6HR MIN TEMP:  51; 6HR MAX TEMP:  55;

MIDDLETON      NOT AVBL
WATERTOWN      CLEAR     48  40  75 SW7       29.76F
6HR MIN TEMP:  47; 6HR MAX TEMP:  51;

MONROE         CLEAR     46  36  66 SW16      29.82F
JANESVILLE     CLEAR     50  37  62 W9        29.81S
$$

WIZ051-052-058>065-066-070>072-271300-
SOUTHEAST WISCONSIN

CITY           SKY/WX    TMP DP  RH WIND       PRES   REMARKS
MILWAUKEE      PTCLDY    53  38  56 SW12      29.76F
6HR MIN TEMP:  53; 6HR MAX TEMP:  57;

WAUKESHA       CLEAR     48  37  66 W12G17    29.77F
MILWAUKEE/TIMM CLEAR     50  36  57 SW12      29.76F
RACINE         CLEAR     51  38  60 SW10      29.79S
6HR MIN TEMP:  50; 6HR MAX TEMP:  53;

BURLINGTON     CLEAR     48  37  66 SW10      29.79F
6HR MIN TEMP:  47; 6HR MAX TEMP:  52;

KENOSHA        CLEAR     48  39  71 SW13      29.80S
6HR MIN TEMP:  48; 6HR MAX TEMP:  52;

FOND DU LAC    MOCLDY    49  40  71 SW8       29.72F
6HR MIN TEMP:  49; 6HR MAX TEMP:  52;

SHEBOYGAN      CLOUDY    52  40  63 W14       29.70F
6HR MIN TEMP:  48; 6HR MAX TEMP:  52;

WEST BEND      PTCLDY    50  37  62 W12G18    29.73S
JUNEAU         PTCLDY    46  39  78 SW9       29.76S
6HR MIN TEMP:  45; 6HR MAX TEMP:  49;

$$

LSZ147-162-271300-
LAKE SUPERIOR

STATION/POSITION TIME  TEMP    WIND        PRES    WAVE
                       AIR SEA DIR/SP/G            HT/PER
                 (UTC) (F)     (DEG/KT/KT) (MB)    (FT/S)
W MID LAKE BUOY  1150   50 47  280/ 17/ 19  999.9R   4/ 5
DEVILS ISLAND    1200   51     280/ 20/ 22 1002.7R
SAXON HARBOR     1140   51     220/  7/ 11 1003.7R
$$

LMZ867-665-643>646-271300-
LAKE MICHIGAN

STATION/POSITION TIME  TEMP    WIND        PRES    WAVE
                       AIR SEA DIR/SP/G            HT/PER
                 (UTC) (F)     (DEG/KT/KT) (MB)    (FT/S)
CHAMBERS ISLAND  1100   56     220/ 10/ 20 1002.0S
N MID LAKE BUOY  1150   58 66  260/ 27/ 35 1000.1F   6/ 6
NORTHPORT PIER   1100   56     250/  6/ 14 1002.0S
KEWAUNEE LAKESHO 1200   54     260/  8/ 13 1003.8S
SHEBOYGAN LAKESH 1200   53     250/ 11/ 13 1005.5F
PORT WASHINGTON  1140   52     250/  7/ 10 1007.5F
ATWATEC1F1C2F2C3F3C4F4C5F5C6F6C7F7C8M1C9M2Ca!


USA.gov is the U.S. government's official web portal to all federal, state and local government web resources and services.